Location: Warwick
(41.7000°N, 71.4170°W)
Time: 17:13:00
(UTC-05:00)

N. Korean satellite - Visible Passes

Search period start: 19 February 2018 00:00
Search period end: 01 March 2018 00:00
Orbit: 459 x 514 km, 97.2° (Epoch: 18 February)

Date Brightness Start Highest point End Pass type
(mag) Time Alt. Az. Time Alt. Az. Time Alt. Az.
19 Feb 9.1 05:52:09 10° NE 05:55:21 28° E 05:58:34 10° SSE visible
19 Feb 8.0 18:01:41 10° S 18:04:57 41° W 18:08:16 10° NNW visible
20 Feb 10.2 05:29:18 10° NE 05:31:28 15° E 05:33:40 10° SE visible
21 Feb 10.4 18:50:18 10° WSW 18:51:14 11° W 18:52:10 10° WNW visible
22 Feb 9.5 18:24:36 10° SSW 18:27:18 21° W 18:30:03 10° NW visible
23 Feb 9.2 05:50:40 10° NE 05:53:53 28° E 05:57:07 10° SSE visible
23 Feb 7.9 18:00:09 10° S 18:03:26 43° W 18:06:48 10° NNW visible
24 Feb 10.2 05:27:50 10° ENE 05:30:00 15° E 05:32:09 10° SE visible
25 Feb 10.3 18:48:31 10° WSW 18:49:41 11° W 18:50:52 10° WNW visible
26 Feb 9.4 18:22:58 10° SSW 18:25:44 22° W 18:28:34 10° NW visible
27 Feb 9.3 05:49:09 10° NE 05:52:21 27° E 05:55:35 10° SSE visible
27 Feb 7.9 17:58:32 10° S 18:01:53 45° W 18:05:18 10° NNW visible
28 Feb 10.3 05:26:21 10° ENE 05:28:27 14° E 05:30:33 10° SE visible
